Time,TemperatureF,DewpointF,PressureIn,WindDirection,WindDirectionDegrees,WindSpeedMPH,WindSpeedGustMPH,Humidity,HourlyPrecipIn,Conditions,Clouds,dailyrainin,SoftwareType,DateUTC
2013-02-25 00:00:00,40.8,0.0,30.02,NNW,338,2.0,10.0,0,0.00,,,0.01,Weather View 32 v70,2013-02-25 05:00:00,
2013-02-25 00:05:00,41.0,0.0,30.00,WNW,293,0.0,10.0,0,0.00,,,0.00,Weather View 32 v70,2013-02-25 05:05:00,
2013-02-25 00:10:00,40.5,0.0,30.01,NNW,338,2.0,10.0,0,0.00,,,0.00,Weather View 32 v70,2013-02-25 05:10:00,
2013-02-25 00:15:00,40.5,0.0,30.00,WNW,293,3.0,10.0,0,0.00,,,0.00,Weather View 32 v70,2013-02-25 05:15:00,
2013-02-25 00:21:00,41.0,0.0,30.02,NNW,338,1.0,8.0,0,0.00,,,0.00,Weather View 32 v70,2013-02-25 05:21:00,
2013-02-25 00:26:00,41.2,0.0,30.01,WNW,293,0.0,7.0,0,0.00,,,0.00,Weather View 32 v70,2013-02-25 05:26:00,
2013-02-25 00:31:00,41.2,0.0,30.01,WNW,293,0.0,7.0,0,0.00,,,0.00,Weather View 32 v70,2013-02-25 05:31:00,
2013-02-25 00:36:00,41.2,0.0,30.03,NNW,338,1.0,7.0,0,0.00,,,0.00,Weather View 32 v70,2013-02-25 05:36:00,
2013-02-25 00:41:00,40.8,0.0,30.00,NNE,23,3.0,7.0,0,0.00,,,0.00,Weather View 32 v70,2013-02-25 05:41:00,
2013-02-25 00:47:00,40.6,0.0,30.02,East,90,2.0,7.0,0,0.00,,,0.00,Weather View 32 v70,2013-02-25 05:47:00,
2013-02-25 00:52:00,40.1,0.0,30.03,NW,315,0.0,7.0,0,0.00,,,0.00,Weather View 32 v70,2013-02-25 05:52:00,
2013-02-25 00:57:00,39.7,0.0,30.02,East,90,0.0,7.0,0,0.00,,,0.00,Weather View 32 v70,2013-02-25 05:57:00,
2013-02-25 01:02:00,38.8,0.0,30.02,NE,45,0.0,7.0,0,0.00,,,0.00,Weather View 32 v70,2013-02-25 06:02:00,
2013-02-25 01:07:00,38.3,0.0,30.05,WNW,293,0.0,7.0,0,0.00,,,0.00,Weather View 32 v70,2013-02-25 06:07:00,
2013-02-25 01:12:00,38.1,0.0,30.05,ESE,113,0.0,7.0,0,0.00,,,0.00,Weather View 32 v70,2013-02-25 06:12:00,
2013-02-25 01:17:00,38.3,0.0,30.05,NNE,23,3.0,7.0,0,0.00,,,0.00,Weather View 32 v70,2013-02-25 06:17:00,
2013-02-25 01:22:00,39.0,0.0,30.05,North,0,1.0,8.0,0,0.00,,,0.00,Weather View 32 v70,2013-02-25 06:22:00,
2013-02-25 01:27:00,39.2,0.0,30.06,ENE,68,5.0,12.0,0,0.00,,,0.00,Weather View 32 v70,2013-02-25 06:27:00,
2013-02-25 01:33:00,39.4,0.0,30.03,NNW,338,4.0,13.0,0,0.00,,,0.00,Weather View 32 v70,2013-02-25 06:33:00,
2013-02-25 01:38:00,38.7,0.0,30.02,ESE,113,5.0,13.0,0,0.00,,,0.00,Weather View 32 v70,2013-02-25 06:38:00,
2013-02-25 01:43:00,38.3,0.0,30.05,NNE,23,7.0,13.0,0,0.00,,,0.00,Weather View 32 v70,2013-02-25 06:43:00,
2013-02-25 01:48:00,37.9,0.0,30.04,North,0,8.0,13.0,0,0.00,,,0.00,Weather View 32 v70,2013-02-25 06:48:00,
2013-02-25 01:53:00,37.9,0.0,30.04,NNE,23,5.0,13.0,0,0.00,,,0.00,Weather View 32 v70,2013-02-25 06:53:00,
2013-02-25 01:58:00,37.6,0.0,30.05,NNE,23,3.0,13.0,0,0.00,,,0.00,Weather View 32 v70,2013-02-25 06:58:00,
2013-02-25 02:03:00,37.4,0.0,30.06,NNE,23,3.0,13.0,0,0.00,,,0.00,Weather View 32 v70,2013-02-25 07:03:00,
2013-02-25 02:08:00,37.2,0.0,30.03,NNE,23,2.0,13.0,0,0.00,,,0.00,Weather View 32 v70,2013-02-25 07:08:00,
2013-02-25 02:13:00,37.0,0.0,30.03,NNE,23,6.0,13.0,0,0.00,,,0.00,Weather View 32 v70,2013-02-25 07:13:00,
2013-02-25 02:18:00,36.7,0.0,30.05,NNE,23,3.0,13.0,0,0.00,,,0.00,Weather View 32 v70,2013-02-25 07:18:00,
2013-02-25 02:24:00,36.3,0.0,30.03,NW,315,3.0,13.0,0,0.00,,,0.00,Weather View 32 v70,2013-02-25 07:24:00,
2013-02-25 02:29:00,36.3,0.0,30.05,NE,45,2.0,13.0,0,0.00,,,0.00,Weather View 32 v70,2013-02-25 07:29:00,
2013-02-25 02:34:00,36.0,0.0,30.03,North,0,0.0,12.0,0,0.00,,,0.00,Weather View 32 v70,2013-02-25 07:34:00,
2013-02-25 02:39:00,35.8,0.0,30.06,NNE,23,2.0,12.0,0,0.00,,,0.00,Weather View 32 v70,2013-02-25 07:39:00,
2013-02-25 02:45:00,35.6,0.0,30.05,NW,315,0.0,12.0,0,0.00,,,0.00,Weather View 32 v70,2013-02-25 07:45:00,
2013-02-25 02:50:00,35.4,0.0,30.06,NNE,23,9.0,12.0,0,0.00,,,0.00,Weather View 32 v70,2013-02-25 07:50:00,
2013-02-25 02:55:00,35.2,0.0,30.06,ESE,113,3.0,10.0,0,0.00,,,0.00,Weather View 32 v70,2013-02-25 07:55:00,
2013-02-25 03:00:00,35.2,0.0,30.07,NE,45,4.0,11.0,0,0.00,,,0.00,Weather View 32 v70,2013-02-25 08:00:00,
2013-02-25 03:05:00,35.2,0.0,30.06,North,0,3.0,12.0,0,0.00,,,0.00,Weather View 32 v70,2013-02-25 08:05:00,
2013-02-25 03:10:00,35.4,0.0,30.04,NNE,23,0.0,12.0,0,0.00,,,0.00,Weather View 32 v70,2013-02-25 08:10:00,
2013-02-25 03:15:00,35.2,0.0,30.05,NNE,23,8.0,12.0,0,0.00,,,0.00,Weather View 32 v70,2013-02-25 08:15:00,
2013-02-25 03:20:00,35.1,0.0,30.06,North,0,1.0,12.0,0,0.00,,,0.00,Weather View 32 v70,2013-02-25 08:20:00,
2013-02-25 03:25:00,34.9,0.0,30.07,NNE,23,6.0,12.0,0,0.00,,,0.00,Weather View 32 v70,2013-02-25 08:25:00,
2013-02-25 03:30:00,34.3,0.0,30.06,NNW,338,2.0,12.0,0,0.00,,,0.00,Weather View 32 v70,2013-02-25 08:30:00,
2013-02-25 03:35:00,34.3,0.0,30.04,NNE,23,3.0,12.0,0,0.00,,,0.00,Weather View 32 v70,2013-02-25 08:35:00,
2013-02-25 03:40:00,34.0,0.0,30.05,NNE,23,3.0,12.0,0,0.00,,,0.00,Weather View 32 v70,2013-02-25 08:40:00,
2013-02-25 03:45:00,33.8,0.0,30.07,SSE,158,0.0,12.0,0,0.00,,,0.00,Weather View 32 v70,2013-02-25 08:45:00,
2013-02-25 03:50:00,33.8,0.0,30.05,NE,45,4.0,12.0,0,0.00,,,0.00,Weather View 32 v70,2013-02-25 08:50:00,
2013-02-25 03:55:00,33.6,0.0,30.07,NNW,338,0.0,12.0,0,0.00,,,0.00,Weather View 32 v70,2013-02-25 08:55:00,
2013-02-25 04:00:00,33.4,0.0,30.08,NW,315,0.0,12.0,0,0.00,,,0.00,Weather View 32 v70,2013-02-25 09:00:00,
2013-02-25 04:05:00,33.6,0.0,30.06,NNE,23,2.0,12.0,0,0.00,,,0.00,Weather View 32 v70,2013-02-25 09:05:00,
2013-02-25 04:10:00,33.4,0.0,30.09,NNE,23,1.0,10.0,0,0.00,,,0.00,Weather View 32 v70,2013-02-25 09:10:00,
2013-02-25 04:15:00,33.3,0.0,30.08,NNW,338,2.0,10.0,0,0.00,,,0.00,Weather View 32 v70,2013-02-25 09:15:00,
2013-02-25 04:20:00,33.4,0.0,30.07,NE,45,2.0,10.0,0,0.00,,,0.00,Weather View 32 v70,2013-02-25 09:20:00,
2013-02-25 04:25:00,33.4,0.0,30.08,North,0,3.0,10.0,0,0.00,,,0.00,Weather View 32 v70,2013-02-25 09:25:00,
2013-02-25 04:30:00,33.3,0.0,30.09,NE,45,1.0,8.0,0,0.00,,,0.00,Weather View 32 v70,2013-02-25 09:30:00,
2013-02-25 04:35:00,33.1,0.0,30.11,NW,315,0.0,8.0,0,0.00,,,0.00,Weather View 32 v70,2013-02-25 09:35:00,
2013-02-25 04:40:00,33.1,0.0,30.09,NW,315,2.0,8.0,0,0.00,,,0.00,Weather View 32 v70,2013-02-25 09:40:00,
2013-02-25 04:45:00,32.9,0.0,30.10,East,90,3.0,8.0,0,0.00,,,0.00,Weather View 32 v70,2013-02-25 09:45:00,
2013-02-25 04:50:00,32.9,0.0,30.06,NNE,23,2.0,8.0,0,0.00,,,0.00,Weather View 32 v70,2013-02-25 09:50:00,
2013-02-25 04:55:00,32.7,0.0,30.11,NW,315,0.0,8.0,0,0.00,,,0.00,Weather View 32 v70,2013-02-25 09:55:00,
2013-02-25 05:00:00,32.5,0.0,30.09,NNW,338,0.0,8.0,0,0.00,,,0.00,Weather View 32 v70,2013-02-25 10:00:00,
2013-02-25 05:05:00,32.4,0.0,30.10,North,0,1.0,8.0,0,0.00,,,0.00,Weather View 32 v70,2013-02-25 10:05:00,
2013-02-25 05:10:00,32.2,0.0,30.12,WNW,293,0.0,8.0,0,0.00,,,0.00,Weather View 32 v70,2013-02-25 10:10:00,
2013-02-25 05:15:00,32.4,0.0,30.09,NW,315,0.0,8.0,0,0.00,,,0.00,Weather View 32 v70,2013-02-25 10:15:00,
2013-02-25 05:20:00,32.2,0.0,30.09,NNE,23,2.0,8.0,0,0.00,,,0.00,Weather View 32 v70,2013-02-25 10:20:00,
2013-02-25 05:25:00,32.2,0.0,30.10,NNW,338,2.0,7.0,0,0.00,,,0.00,Weather View 32 v70,2013-02-25 10:25:00,
2013-02-25 05:30:00,32.2,0.0,30.12,NW,315,1.0,7.0,0,0.00,,,0.00,Weather View 32 v70,2013-02-25 10:30:00,
2013-02-25 05:35:00,32.2,0.0,30.10,NNW,338,0.0,7.0,0,0.00,,,0.00,Weather View 32 v70,2013-02-25 10:35:00,
2013-02-25 05:40:00,32.0,0.0,30.13,NE,45,6.0,7.0,0,0.00,,,0.00,Weather View 32 v70,2013-02-25 10:40:00,
2013-02-25 05:45:00,32.0,0.0,30.12,NNE,23,3.0,7.0,0,0.00,,,0.00,Weather View 32 v70,2013-02-25 10:45:00,
2013-02-25 05:50:00,32.0,0.0,30.12,WNW,293,1.0,7.0,0,0.00,,,0.00,Weather View 32 v70,2013-02-25 10:50:00,
2013-02-25 05:56:00,31.8,0.0,30.11,NNE,23,2.0,7.0,0,0.00,,,0.00,Weather View 32 v70,2013-02-25 10:56:00,
2013-02-25 06:01:00,31.8,0.0,30.10,WNW,293,1.0,7.0,0,0.00,,,0.00,Weather View 32 v70,2013-02-25 11:01:00,
2013-02-25 06:06:00,31.6,0.0,30.11,NNE,23,3.0,7.0,0,0.00,,,0.00,Weather View 32 v70,2013-02-25 11:06:00,
2013-02-25 06:11:00,31.8,0.0,30.11,NW,315,3.0,7.0,0,0.00,,,0.00,Weather View 32 v70,2013-02-25 11:11:00,
2013-02-25 06:16:00,31.5,0.0,30.12,NNE,23,4.0,6.0,0,0.00,,,0.00,Weather View 32 v70,2013-02-25 11:16:00,
2013-02-25 06:22:00,31.3,0.0,30.12,NW,315,1.0,7.0,0,0.00,,,0.00,Weather View 32 v70,2013-02-25 11:22:00,
2013-02-25 06:27:00,31.3,0.0,30.13,North,0,1.0,7.0,0,0.00,,,0.00,Weather View 32 v70,2013-02-25 11:27:00,
2013-02-25 06:32:00,31.3,0.0,30.12,North,0,0.0,7.0,0,0.00,,,0.00,Weather View 32 v70,2013-02-25 11:32:00,
2013-02-25 06:37:00,31.3,0.0,30.14,NNW,338,0.0,7.0,0,0.00,,,0.00,Weather View 32 v70,2013-02-25 11:37:00,
2013-02-25 06:42:00,31.5,0.0,30.14,WNW,293,0.0,8.0,0,0.00,,,0.00,Weather View 32 v70,2013-02-25 11:42:00,
2013-02-25 06:47:00,31.5,0.0,30.13,ESE,113,0.0,8.0,0,0.00,,,0.00,Weather View 32 v70,2013-02-25 11:47:00,
2013-02-25 06:52:00,31.3,0.0,30.11,North,0,3.0,8.0,0,0.00,,,0.00,Weather View 32 v70,2013-02-25 11:52:00,
2013-02-25 06:57:00,31.5,0.0,30.13,NNW,338,0.0,8.0,0,0.00,,,0.00,Weather View 32 v70,2013-02-25 11:57:00,
2013-02-25 07:02:00,31.3,0.0,30.13,WNW,293,0.0,8.0,0,0.00,,,0.00,Weather View 32 v70,2013-02-25 12:02:00,
2013-02-25 07:08:00,30.9,0.0,30.13,NNW,338,0.0,8.0,0,0.00,,,0.00,Weather View 32 v70,2013-02-25 12:08:00,
2013-02-25 07:13:00,30.9,0.0,30.13,NNW,338,1.0,8.0,0,0.00,,,0.00,Weather View 32 v70,2013-02-25 12:13:00,
2013-02-25 07:18:00,31.3,0.0,30.15,North,0,1.0,8.0,0,0.00,,,0.00,Weather View 32 v70,2013-02-25 12:18:00,
2013-02-25 07:23:00,31.8,0.0,30.13,NNE,23,4.0,8.0,0,0.00,,,0.00,Weather View 32 v70,2013-02-25 12:23:00,
2013-02-25 07:28:00,31.5,0.0,30.14,North,0,1.0,8.0,0,0.00,,,0.00,Weather View 32 v70,2013-02-25 12:28:00,
2013-02-25 07:33:00,31.6,0.0,30.13,NNE,23,3.0,8.0,0,0.00,,,0.00,Weather View 32 v70,2013-02-25 12:33:00,
2013-02-25 07:39:00,32.0,0.0,30.14,NE,45,4.0,8.0,0,0.00,,,0.00,Weather View 32 v70,2013-02-25 12:39:00,
2013-02-25 07:45:00,32.0,0.0,30.14,East,90,3.0,9.0,0,0.00,,,0.00,Weather View 32 v70,2013-02-25 12:45:00,
2013-02-25 07:55:00,32.4,0.0,30.15,WNW,293,0.0,9.0,0,0.00,,,0.00,Weather View 32 v70,2013-02-25 12:55:00,
2013-02-25 08:05:00,32.5,0.0,30.15,NE,45,3.0,9.0,0,0.00,,,0.00,Weather View 32 v70,2013-02-25 13:05:00,
2013-02-25 08:15:00,33.3,0.0,30.14,NE,45,3.0,9.0,0,0.00,,,0.00,Weather View 32 v70,2013-02-25 13:15:00,
2013-02-25 08:20:00,33.4,0.0,30.17,NNE,23,2.0,9.0,0,0.00,,,0.00,Weather View 32 v70,2013-02-25 13:20:00,
2013-02-25 08:25:00,33.8,0.0,30.19,North,0,1.0,9.0,0,0.00,,,0.00,Weather View 32 v70,2013-02-25 13:25:00,
2013-02-25 08:35:00,34.2,0.0,30.16,NNE,23,3.0,9.0,0,0.00,,,0.00,Weather View 32 v70,2013-02-25 13:35:00,
2013-02-25 08:40:00,34.3,0.0,30.16,NNE,23,3.0,9.0,0,0.00,,,0.00,Weather View 32 v70,2013-02-25 13:40:00,
2013-02-25 08:45:00,34.5,0.0,30.16,North,0,1.0,9.0,0,0.00,,,0.00,Weather View 32 v70,2013-02-25 13:45:00,
2013-02-25 08:50:00,34.9,0.0,30.18,NNE,23,4.0,11.0,0,0.00,,,0.00,Weather View 32 v70,2013-02-25 13:50:00,
2013-02-25 08:55:00,35.4,0.0,30.15,East,90,3.0,11.0,0,0.00,,,0.00,Weather View 32 v70,2013-02-25 13:55:00,
2013-02-25 09:05:00,36.0,0.0,30.17,NNW,338,4.0,11.0,0,0.00,,,0.00,Weather View 32 v70,2013-02-25 14:05:00,
2013-02-25 09:20:00,37.0,0.0,30.17,SSE,158,1.0,11.0,0,0.00,,,0.00,Weather View 32 v70,2013-02-25 14:20:00,
2013-02-25 09:25:00,37.8,0.0,30.20,SSE,158,4.0,11.0,0,0.00,,,0.00,Weather View 32 v70,2013-02-25 14:25:00,
2013-02-25 09:35:00,38.7,0.0,30.20,NE,45,3.0,13.0,0,0.00,,,0.00,Weather View 32 v70,2013-02-25 14:35:00,
2013-02-25 09:40:00,38.8,0.0,30.19,SSE,158,3.0,13.0,0,0.00,,,0.00,Weather View 32 v70,2013-02-25 14:40:00,
2013-02-25 09:45:00,38.8,0.0,30.19,East,90,5.0,13.0,0,0.00,,,0.00,Weather View 32 v70,2013-02-25 14:45:00,
2013-02-25 09:50:00,39.7,0.0,30.19,NNE,23,6.0,13.0,0,0.00,,,0.00,Weather View 32 v70,2013-02-25 14:50:00,
2013-02-25 09:55:00,39.6,0.0,30.21,NE,45,3.0,13.0,0,0.00,,,0.00,Weather View 32 v70,2013-02-25 14:55:00,
2013-02-25 10:00:00,40.1,0.0,30.19,North,0,3.0,13.0,0,0.00,,,0.00,Weather View 32 v70,2013-02-25 15:00:00,
2013-02-25 10:05:00,39.6,0.0,30.20,NW,315,0.0,13.0,0,0.00,,,0.00,Weather View 32 v70,2013-02-25 15:05:00,
2013-02-25 10:11:00,39.7,0.0,30.19,NNE,23,3.0,13.0,0,0.00,,,0.00,Weather View 32 v70,2013-02-25 15:11:00,
2013-02-25 10:16:00,40.1,0.0,30.20,NE,45,7.0,13.0,0,0.00,,,0.00,Weather View 32 v70,2013-02-25 15:16:00,
2013-02-25 10:21:00,40.6,0.0,30.19,SSE,158,4.0,13.0,0,0.00,,,0.00,Weather View 32 v70,2013-02-25 15:21:00,
2013-02-25 10:26:00,41.9,0.0,30.16,NW,315,2.0,13.0,0,0.00,,,0.00,Weather View 32 v70,2013-02-25 15:26:00,
2013-02-25 10:31:00,42.3,0.0,30.18,ESE,113,3.0,13.0,0,0.00,,,0.00,Weather View 32 v70,2013-02-25 15:31:00,
2013-02-25 10:37:00,42.4,0.0,30.16,ESE,113,2.0,13.0,0,0.00,,,0.00,Weather View 32 v70,2013-02-25 15:37:00,
2013-02-25 10:42:00,42.6,0.0,30.18,NNW,338,1.0,13.0,0,0.00,,,0.00,Weather View 32 v70,2013-02-25 15:42:00,
2013-02-25 10:47:00,42.8,0.0,30.20,SE,135,5.0,13.0,0,0.00,,,0.00,Weather View 32 v70,2013-02-25 15:47:00,
2013-02-25 10:52:00,42.8,0.0,30.18,East,90,3.0,13.0,0,0.00,,,0.00,Weather View 32 v70,2013-02-25 15:52:00,
2013-02-25 10:57:00,42.4,0.0,30.20,NNE,23,8.0,13.0,0,0.00,,,0.00,Weather View 32 v70,2013-02-25 15:57:00,
2013-02-25 11:02:00,41.9,0.0,30.19,WNW,293,0.0,13.0,0,0.00,,,0.00,Weather View 32 v70,2013-02-25 16:02:00,
2013-02-25 11:07:00,41.7,0.0,30.20,ESE,113,5.0,13.0,0,0.00,,,0.00,Weather View 32 v70,2013-02-25 16:07:00,
2013-02-25 11:12:00,42.4,0.0,30.18,SSE,158,4.0,12.0,0,0.00,,,0.00,Weather View 32 v70,2013-02-25 16:12:00,
2013-02-25 11:18:00,42.8,0.0,30.18,North,0,2.0,10.0,0,0.00,,,0.00,Weather View 32 v70,2013-02-25 16:18:00,
2013-02-25 11:23:00,42.3,0.0,30.16,NNW,338,0.0,10.0,0,0.00,,,0.00,Weather View 32 v70,2013-02-25 16:23:00,
2013-02-25 11:28:00,42.3,0.0,30.18,North,0,2.0,12.0,0,0.00,,,0.00,Weather View 32 v70,2013-02-25 16:28:00,
2013-02-25 11:33:00,41.5,0.0,30.17,ENE,68,6.0,12.0,0,0.00,,,0.00,Weather View 32 v70,2013-02-25 16:33:00,
2013-02-25 11:39:00,42.1,0.0,30.18,NW,315,1.0,12.0,0,0.00,,,0.00,Weather View 32 v70,2013-02-25 16:39:00,
2013-02-25 11:44:00,43.0,0.0,30.18,NW,315,0.0,12.0,0,0.00,,,0.00,Weather View 32 v70,2013-02-25 16:44:00,
2013-02-25 11:49:00,42.3,0.0,30.17,East,90,2.0,12.0,0,0.00,,,0.00,Weather View 32 v70,2013-02-25 16:49:00,
2013-02-25 11:54:00,43.3,0.0,30.17,East,90,5.0,12.0,0,0.00,,,0.00,Weather View 32 v70,2013-02-25 16:54:00,
2013-02-25 11:59:00,44.2,0.0,30.18,East,90,5.0,12.0,0,0.00,,,0.00,Weather View 32 v70,2013-02-25 16:59:00,
2013-02-25 12:04:00,45.0,0.0,30.16,ESE,113,3.0,12.0,0,0.00,,,0.00,Weather View 32 v70,2013-02-25 17:04:00,
2013-02-25 12:09:00,44.8,0.0,30.18,ESE,113,5.0,12.0,0,0.00,,,0.00,Weather View 32 v70,2013-02-25 17:09:00,
2013-02-25 12:15:00,43.7,0.0,30.16,NNW,338,3.0,12.0,0,0.00,,,0.00,Weather View 32 v70,2013-02-25 17:15:00,
2013-02-25 12:20:00,43.7,0.0,30.17,East,90,3.0,12.0,0,0.00,,,0.00,Weather View 32 v70,2013-02-25 17:20:00,
2013-02-25 12:25:00,44.4,0.0,30.17,SSE,158,3.0,12.0,0,0.00,,,0.00,Weather View 32 v70,2013-02-25 17:25:00,
2013-02-25 12:30:00,44.8,0.0,30.15,NW,315,1.0,12.0,0,0.00,,,0.00,Weather View 32 v70,2013-02-25 17:30:00,
2013-02-25 12:35:00,45.1,0.0,30.14,SE,135,2.0,12.0,0,0.00,,,0.00,Weather View 32 v70,2013-02-25 17:35:00,
2013-02-25 12:40:00,45.0,0.0,30.13,North,0,3.0,12.0,0,0.00,,,0.00,Weather View 32 v70,2013-02-25 17:40:00,
2013-02-25 12:45:00,44.6,0.0,30.15,North,0,6.0,12.0,0,0.00,,,0.00,Weather View 32 v70,2013-02-25 17:45:00,
2013-02-25 12:50:00,44.2,0.0,30.14,North,0,2.0,12.0,0,0.00,,,0.00,Weather View 32 v70,2013-02-25 17:50:00,
2013-02-25 12:55:00,44.8,0.0,30.12,ESE,113,0.0,12.0,0,0.00,,,0.00,Weather View 32 v70,2013-02-25 17:55:00,
2013-02-25 13:00:00,45.1,0.0,30.13,ENE,68,2.0,12.0,0,0.00,,,0.00,Weather View 32 v70,2013-02-25 18:00:00,
2013-02-25 13:05:00,45.1,0.0,30.13,North,0,3.0,12.0,0,0.00,,,0.00,Weather View 32 v70,2013-02-25 18:05:00,
2013-02-25 13:10:00,45.1,0.0,30.13,North,0,2.0,12.0,0,0.00,,,0.00,Weather View 32 v70,2013-02-25 18:10:00,
2013-02-25 13:15:00,45.1,0.0,30.15,WNW,293,0.0,8.0,0,0.00,,,0.00,Weather View 32 v70,2013-02-25 18:15:00,
2013-02-25 13:20:00,44.4,0.0,30.13,NW,315,1.0,8.0,0,0.00,,,0.00,Weather View 32 v70,2013-02-25 18:20:00,
2013-02-25 13:25:00,45.1,0.0,30.11,NNE,23,6.0,8.0,0,0.00,,,0.00,Weather View 32 v70,2013-02-25 18:25:00,
2013-02-25 13:30:00,44.4,0.0,30.13,NNE,23,3.0,8.0,0,0.00,,,0.00,Weather View 32 v70,2013-02-25 18:30:00,
2013-02-25 13:35:00,44.6,0.0,30.14,East,90,4.0,8.0,0,0.00,,,0.00,Weather View 32 v70,2013-02-25 18:35:00,
2013-02-25 13:40:00,44.6,0.0,30.13,ESE,113,2.0,8.0,0,0.00,,,0.00,Weather View 32 v70,2013-02-25 18:40:00,
2013-02-25 13:45:00,44.8,0.0,30.15,NW,315,0.0,8.0,0,0.00,,,0.00,Weather View 32 v70,2013-02-25 18:45:00,
2013-02-25 13:50:00,45.0,0.0,30.10,West,270,0.0,8.0,0,0.00,,,0.00,Weather View 32 v70,2013-02-25 18:50:00,
2013-02-25 13:55:00,45.0,0.0,30.14,SSE,158,2.0,9.0,0,0.00,,,0.00,Weather View 32 v70,2013-02-25 18:55:00,
2013-02-25 14:00:00,45.0,0.0,30.13,East,90,2.0,9.0,0,0.00,,,0.00,Weather View 32 v70,2013-02-25 19:00:00,
2013-02-25 14:05:00,44.8,0.0,30.13,ESE,113,2.0,9.0,0,0.00,,,0.00,Weather View 32 v70,2013-02-25 19:05:00,
2013-02-25 14:10:00,45.0,0.0,30.13,ESE,113,4.0,9.0,0,0.00,,,0.00,Weather View 32 v70,2013-02-25 19:10:00,
2013-02-25 14:15:00,45.3,0.0,30.13,ESE,113,4.0,9.0,0,0.00,,,0.00,Weather View 32 v70,2013-02-25 19:15:00,
2013-02-25 14:20:00,45.5,0.0,30.14,NNE,23,1.0,9.0,0,0.00,,,0.00,Weather View 32 v70,2013-02-25 19:20:00,
2013-02-25 14:25:00,45.0,0.0,30.13,East,90,2.0,9.0,0,0.00,,,0.00,Weather View 32 v70,2013-02-25 19:25:00,
2013-02-25 14:30:00,44.4,0.0,30.14,West,270,0.0,9.0,0,0.00,,,0.00,Weather View 32 v70,2013-02-25 19:30:00,
2013-02-25 14:35:00,44.4,0.0,30.15,North,0,0.0,9.0,0,0.00,,,0.00,Weather View 32 v70,2013-02-25 19:35:00,
2013-02-25 14:40:00,44.2,0.0,30.12,North,0,4.0,9.0,0,0.00,,,0.00,Weather View 32 v70,2013-02-25 19:40:00,
2013-02-25 14:46:00,43.9,0.0,30.10,West,270,0.0,9.0,0,0.00,,,0.00,Weather View 32 v70,2013-02-25 19:46:00,
2013-02-25 14:51:00,43.9,0.0,30.13,NNE,23,2.0,9.0,0,0.00,,,0.00,Weather View 32 v70,2013-02-25 19:51:00,
2013-02-25 14:56:00,44.1,0.0,30.12,East,90,0.0,9.0,0,0.00,,,0.00,Weather View 32 v70,2013-02-25 19:56:00,
2013-02-25 15:01:00,44.2,0.0,30.11,NNE,23,2.0,9.0,0,0.00,,,0.00,Weather View 32 v70,2013-02-25 20:01:00,
2013-02-25 15:06:00,44.4,0.0,30.12,NW,315,1.0,9.0,0,0.00,,,0.00,Weather View 32 v70,2013-02-25 20:06:00,
2013-02-25 15:12:00,43.7,0.0,30.12,NNE,23,1.0,9.0,0,0.00,,,0.00,Weather View 32 v70,2013-02-25 20:12:00,
2013-02-25 15:17:00,43.0,0.0,30.11,ESE,113,2.0,9.0,0,0.00,,,0.00,Weather View 32 v70,2013-02-25 20:17:00,
2013-02-25 15:22:00,43.2,0.0,30.12,NW,315,0.0,9.0,0,0.00,,,0.00,Weather View 32 v70,2013-02-25 20:22:00,
2013-02-25 15:27:00,43.3,0.0,30.10,NE,45,0.0,9.0,0,0.00,,,0.00,Weather View 32 v70,2013-02-25 20:27:00,
2013-02-25 15:32:00,43.7,0.0,30.07,SSE,158,0.0,9.0,0,0.00,,,0.00,Weather View 32 v70,2013-02-25 20:32:00,
2013-02-25 15:37:00,43.7,0.0,30.08,West,270,0.0,9.0,0,0.00,,,0.00,Weather View 32 v70,2013-02-25 20:37:00,
2013-02-25 15:42:00,43.7,0.0,30.09,SSE,158,2.0,9.0,0,0.00,,,0.00,Weather View 32 v70,2013-02-25 20:42:00,
2013-02-25 15:47:00,43.3,0.0,30.12,NE,45,1.0,9.0,0,0.00,,,0.00,Weather View 32 v70,2013-02-25 20:47:00,
2013-02-25 15:52:00,43.0,0.0,30.12,NNE,23,3.0,9.0,0,0.00,,,0.00,Weather View 32 v70,2013-02-25 20:52:00,
2013-02-25 15:57:00,42.3,0.0,30.12,NE,45,1.0,9.0,0,0.00,,,0.00,Weather View 32 v70,2013-02-25 20:57:00,
2013-02-25 16:02:00,42.1,0.0,30.13,WNW,293,0.0,9.0,0,0.00,,,0.00,Weather View 32 v70,2013-02-25 21:02:00,
2013-02-25 16:07:00,42.1,0.0,30.13,North,0,2.0,9.0,0,0.00,,,0.00,Weather View 32 v70,2013-02-25 21:07:00,
2013-02-25 16:12:00,41.9,0.0,30.11,NNE,23,3.0,9.0,0,0.00,,,0.00,Weather View 32 v70,2013-02-25 21:12:00,
2013-02-25 16:17:00,41.7,0.0,30.14,NNE,23,6.0,6.0,0,0.00,,,0.00,Weather View 32 v70,2013-02-25 21:17:00,
2013-02-25 16:22:00,41.7,0.0,30.06,WNW,293,0.0,8.0,0,0.00,,,0.00,Weather View 32 v70,2013-02-25 21:22:00,
2013-02-25 16:28:00,41.5,0.0,30.07,East,90,0.0,8.0,0,0.00,,,0.00,Weather View 32 v70,2013-02-25 21:28:00,
2013-02-25 16:33:00,41.7,0.0,30.14,NNW,338,2.0,8.0,0,0.00,,,0.00,Weather View 32 v70,2013-02-25 21:33:00,
2013-02-25 16:38:00,41.7,0.0,30.10,WNW,293,0.0,8.0,0,0.00,,,0.00,Weather View 32 v70,2013-02-25 21:38:00,
2013-02-25 16:43:00,41.5,0.0,30.12,NW,315,0.0,8.0,0,0.00,,,0.00,Weather View 32 v70,2013-02-25 21:43:00,
2013-02-25 16:48:00,41.5,0.0,30.08,NNE,23,4.0,8.0,0,0.00,,,0.00,Weather View 32 v70,2013-02-25 21:48:00,
2013-02-25 16:54:00,41.4,0.0,30.11,NW,315,0.0,8.0,0,0.00,,,0.00,Weather View 32 v70,2013-02-25 21:54:00,
2013-02-25 16:59:00,41.5,0.0,30.11,WNW,293,0.0,8.0,0,0.00,,,0.00,Weather View 32 v70,2013-02-25 21:59:00,
2013-02-25 17:04:00,41.4,0.0,30.11,WNW,293,0.0,8.0,0,0.00,,,0.00,Weather View 32 v70,2013-02-25 22:04:00,
2013-02-25 17:09:00,41.2,0.0,30.12,NNW,338,1.0,8.0,0,0.00,,,0.00,Weather View 32 v70,2013-02-25 22:09:00,
2013-02-25 17:14:00,40.8,0.0,30.11,NE,45,4.0,8.0,0,0.00,,,0.00,Weather View 32 v70,2013-02-25 22:14:00,
2013-02-25 17:20:00,40.3,0.0,30.14,WNW,293,0.0,7.0,0,0.00,,,0.00,Weather View 32 v70,2013-02-25 22:20:00,
2013-02-25 17:25:00,40.5,0.0,30.12,NW,315,1.0,7.0,0,0.00,,,0.00,Weather View 32 v70,2013-02-25 22:25:00,
2013-02-25 17:30:00,40.5,0.0,30.10,WNW,293,1.0,8.0,0,0.00,,,0.00,Weather View 32 v70,2013-02-25 22:30:00,
2013-02-25 17:35:00,39.9,0.0,30.11,NW,315,0.0,8.0,0,0.00,,,0.00,Weather View 32 v70,2013-02-25 22:35:00,
2013-02-25 17:40:00,39.7,0.0,30.12,NE,45,4.0,8.0,0,0.00,,,0.00,Weather View 32 v70,2013-02-25 22:40:00,
2013-02-25 17:45:00,39.4,0.0,30.08,North,0,2.0,8.0,0,0.00,,,0.00,Weather View 32 v70,2013-02-25 22:45:00,
2013-02-25 17:50:00,38.8,0.0,30.13,North,0,1.0,8.0,0,0.00,,,0.00,Weather View 32 v70,2013-02-25 22:50:00,
2013-02-25 17:55:00,38.7,0.0,30.12,North,0,0.0,8.0,0,0.00,,,0.00,Weather View 32 v70,2013-02-25 22:55:00,
2013-02-25 18:01:00,38.7,0.0,30.14,NW,315,0.0,8.0,0,0.00,,,0.00,Weather View 32 v70,2013-02-25 23:01:00,
2013-02-25 18:06:00,38.3,0.0,30.12,East,90,1.0,8.0,0,0.00,,,0.00,Weather View 32 v70,2013-02-25 23:06:00,
2013-02-25 18:11:00,37.8,0.0,30.14,North,0,1.0,8.0,0,0.00,,,0.00,Weather View 32 v70,2013-02-25 23:11:00,
2013-02-25 18:16:00,37.6,0.0,30.10,NW,315,0.0,8.0,0,0.00,,,0.00,Weather View 32 v70,2013-02-25 23:16:00,
2013-02-25 18:21:00,37.2,0.0,30.12,NNW,338,3.0,8.0,0,0.00,,,0.00,Weather View 32 v70,2013-02-25 23:21:00,
2013-02-25 18:27:00,37.0,0.0,30.11,NNW,338,1.0,8.0,0,0.00,,,0.00,Weather View 32 v70,2013-02-25 23:27:00,
2013-02-25 18:32:00,37.0,0.0,30.13,NW,315,0.0,7.0,0,0.00,,,0.00,Weather View 32 v70,2013-02-25 23:32:00,
2013-02-25 18:37:00,36.5,0.0,30.14,NW,315,0.0,7.0,0,0.00,,,0.00,Weather View 32 v70,2013-02-25 23:37:00,
2013-02-25 18:42:00,36.5,0.0,30.15,NW,315,0.0,7.0,0,0.00,,,0.00,Weather View 32 v70,2013-02-25 23:42:00,
2013-02-25 18:48:00,36.1,0.0,30.14,NW,315,0.0,6.0,0,0.00,,,0.00,Weather View 32 v70,2013-02-25 23:48:00,
2013-02-25 18:53:00,35.8,0.0,30.14,NW,315,0.0,6.0,0,0.00,,,0.00,Weather View 32 v70,2013-02-25 23:53:00,
2013-02-25 18:58:00,35.6,0.0,30.16,NW,315,0.0,6.0,0,0.00,,,0.00,Weather View 32 v70,2013-02-25 23:58:00,
2013-02-25 19:03:00,35.2,0.0,30.14,WNW,293,0.0,6.0,0,0.00,,,0.00,Weather View 32 v70,2013-02-26 00:03:00,
2013-02-25 19:08:00,34.9,0.0,30.14,WNW,293,0.0,4.0,0,0.00,,,0.00,Weather View 32 v70,2013-02-26 00:08:00,
2013-02-25 19:13:00,34.9,0.0,30.15,WNW,293,0.0,4.0,0,0.00,,,0.00,Weather View 32 v70,2013-02-26 00:13:00,
2013-02-25 19:18:00,34.7,0.0,30.17,WNW,293,0.0,4.0,0,0.00,,,0.00,Weather View 32 v70,2013-02-26 00:18:00,
2013-02-25 19:23:00,34.5,0.0,30.16,WNW,293,0.0,4.0,0,0.00,,,0.00,Weather View 32 v70,2013-02-26 00:23:00,
2013-02-25 19:28:00,34.3,0.0,30.15,NW,315,0.0,2.0,0,0.00,,,0.00,Weather View 32 v70,2013-02-26 00:28:00,
2013-02-25 19:33:00,34.3,0.0,30.16,NW,315,0.0,2.0,0,0.00,,,0.00,Weather View 32 v70,2013-02-26 00:33:00,
2013-02-25 19:38:00,34.3,0.0,30.16,NW,315,0.0,3.0,0,0.00,,,0.00,Weather View 32 v70,2013-02-26 00:38:00,
2013-02-25 19:44:00,34.0,0.0,30.17,NNW,338,1.0,3.0,0,0.00,,,0.00,Weather View 32 v70,2013-02-26 00:44:00,
2013-02-25 19:49:00,33.8,0.0,30.16,WNW,293,1.0,3.0,0,0.00,,,0.00,Weather View 32 v70,2013-02-26 00:49:00,
2013-02-25 19:54:00,33.8,0.0,30.15,NNW,338,1.0,4.0,0,0.00,,,0.00,Weather View 32 v70,2013-02-26 00:54:00,
2013-02-25 19:59:00,33.8,0.0,30.17,NW,315,1.0,4.0,0,0.00,,,0.00,Weather View 32 v70,2013-02-26 00:59:00,
2013-02-25 20:04:00,33.4,0.0,30.17,NNW,338,0.0,4.0,0,0.00,,,0.00,Weather View 32 v70,2013-02-26 01:04:00,
2013-02-25 20:09:00,33.4,0.0,30.17,NNW,338,0.0,4.0,0,0.00,,,0.00,Weather View 32 v70,2013-02-26 01:09:00,
2013-02-25 20:14:00,33.3,0.0,30.16,NNW,338,0.0,4.0,0,0.00,,,0.00,Weather View 32 v70,2013-02-26 01:14:00,
2013-02-25 20:20:00,33.1,0.0,30.16,NNW,338,0.0,4.0,0,0.00,,,0.00,Weather View 32 v70,2013-02-26 01:20:00,
2013-02-25 20:25:00,33.1,0.0,30.15,NW,315,0.0,4.0,0,0.00,,,0.00,Weather View 32 v70,2013-02-26 01:25:00,
2013-02-25 20:30:00,32.7,0.0,30.15,NW,315,0.0,4.0,0,0.00,,,0.00,Weather View 32 v70,2013-02-26 01:30:00,
2013-02-25 20:35:00,32.5,0.0,30.15,NW,315,0.0,4.0,0,0.00,,,0.00,Weather View 32 v70,2013-02-26 01:35:00,
2013-02-25 20:40:00,32.4,0.0,30.15,NW,315,0.0,4.0,0,0.00,,,0.00,Weather View 32 v70,2013-02-26 01:40:00,
2013-02-25 20:45:00,32.5,0.0,30.17,NW,315,0.0,4.0,0,0.00,,,0.00,Weather View 32 v70,2013-02-26 01:45:00,
2013-02-25 20:50:00,32.4,0.0,30.16,NW,315,0.0,4.0,0,0.00,,,0.00,Weather View 32 v70,2013-02-26 01:50:00,
2013-02-25 20:55:00,32.4,0.0,30.14,North,0,1.0,4.0,0,0.00,,,0.00,Weather View 32 v70,2013-02-26 01:55:00,
2013-02-25 21:00:00,32.4,0.0,30.15,NW,315,0.0,3.0,0,0.00,,,0.00,Weather View 32 v70,2013-02-26 02:00:00,
2013-02-25 21:05:00,32.4,0.0,30.15,NW,315,0.0,3.0,0,0.00,,,0.00,Weather View 32 v70,2013-02-26 02:05:00,
2013-02-25 21:10:00,32.5,0.0,30.16,NW,315,1.0,3.0,0,0.00,,,0.00,Weather View 32 v70,2013-02-26 02:10:00,
2013-02-25 21:15:00,32.5,0.0,30.16,NW,315,0.0,3.0,0,0.00,,,0.00,Weather View 32 v70,2013-02-26 02:15:00,
2013-02-25 21:20:00,32.5,0.0,30.16,NW,315,0.0,3.0,0,0.00,,,0.00,Weather View 32 v70,2013-02-26 02:20:00,
2013-02-25 21:25:00,32.2,0.0,30.16,NNW,338,2.0,3.0,0,0.00,,,0.00,Weather View 32 v70,2013-02-26 02:25:00,
2013-02-25 21:30:00,32.4,0.0,30.17,NW,315,0.0,3.0,0,0.00,,,0.00,Weather View 32 v70,2013-02-26 02:30:00,
2013-02-25 21:35:00,32.4,0.0,30.17,NW,315,1.0,3.0,0,0.00,,,0.00,Weather View 32 v70,2013-02-26 02:35:00,
2013-02-25 21:40:00,32.4,0.0,30.18,NW,315,0.0,3.0,0,0.00,,,0.00,Weather View 32 v70,2013-02-26 02:40:00,
2013-02-25 21:45:00,32.4,0.0,30.16,NW,315,1.0,3.0,0,0.00,,,0.00,Weather View 32 v70,2013-02-26 02:45:00,
2013-02-25 21:50:00,32.2,0.0,30.13,NNW,338,0.0,4.0,0,0.00,,,0.00,Weather View 32 v70,2013-02-26 02:50:00,
2013-02-25 21:55:00,32.7,0.0,30.10,NNW,338,0.0,4.0,0,0.00,,,0.00,Weather View 32 v70,2013-02-26 02:55:00,
2013-02-25 22:00:00,32.7,0.0,30.15,NW,315,0.0,4.0,0,0.00,,,0.00,Weather View 32 v70,2013-02-26 03:00:00,
2013-02-25 22:05:00,32.9,0.0,30.16,NW,315,0.0,4.0,0,0.00,,,0.00,Weather View 32 v70,2013-02-26 03:05:00,
2013-02-25 22:10:00,32.5,0.0,30.12,NNW,338,1.0,4.0,0,0.00,,,0.00,Weather View 32 v70,2013-02-26 03:10:00,
2013-02-25 22:15:00,32.9,0.0,30.15,NW,315,0.0,4.0,0,0.00,,,0.00,Weather View 32 v70,2013-02-26 03:15:00,
2013-02-25 22:20:00,32.7,0.0,30.14,NNE,23,2.0,4.0,0,0.00,,,0.00,Weather View 32 v70,2013-02-26 03:20:00,
2013-02-25 22:26:00,32.7,0.0,30.14,NW,315,0.0,4.0,0,0.00,,,0.00,Weather View 32 v70,2013-02-26 03:26:00,
2013-02-25 22:31:00,32.9,0.0,30.13,NNW,338,0.0,4.0,0,0.00,,,0.00,Weather View 32 v70,2013-02-26 03:31:00,
2013-02-25 22:36:00,32.9,0.0,30.12,NNE,23,3.0,5.0,0,0.00,,,0.00,Weather View 32 v70,2013-02-26 03:36:00,
2013-02-25 22:41:00,33.3,0.0,30.13,NW,315,0.0,5.0,0,0.00,,,0.00,Weather View 32 v70,2013-02-26 03:41:00,
2013-02-25 22:47:00,33.3,0.0,30.13,NNW,338,1.0,5.0,0,0.00,,,0.00,Weather View 32 v70,2013-02-26 03:47:00,
2013-02-25 22:52:00,33.4,0.0,30.11,North,0,2.0,7.0,0,0.00,,,0.00,Weather View 32 v70,2013-02-26 03:52:00,
2013-02-25 22:57:00,33.4,0.0,30.12,NNW,338,1.0,7.0,0,0.00,,,0.00,Weather View 32 v70,2013-02-26 03:57:00,
2013-02-25 23:02:00,33.8,0.0,30.10,North,0,0.0,7.0,0,0.00,,,0.00,Weather View 32 v70,2013-02-26 04:02:00,
2013-02-25 23:07:00,33.6,0.0,30.12,NNW,338,2.0,7.0,0,0.00,,,0.00,Weather View 32 v70,2013-02-26 04:07:00,
2013-02-25 23:12:00,33.6,0.0,30.11,NNE,23,5.0,7.0,0,0.00,,,0.00,Weather View 32 v70,2013-02-26 04:12:00,
2013-02-25 23:18:00,33.8,0.0,30.11,NW,315,0.0,7.0,0,0.00,,,0.00,Weather View 32 v70,2013-02-26 04:18:00,
2013-02-25 23:23:00,33.8,0.0,30.08,NNW,338,3.0,7.0,0,0.00,,,0.00,Weather View 32 v70,2013-02-26 04:23:00,
2013-02-25 23:28:00,33.6,0.0,30.09,East,90,2.0,7.0,0,0.00,,,0.00,Weather View 32 v70,2013-02-26 04:28:00,
2013-02-25 23:33:00,33.6,0.0,30.09,North,0,4.0,8.0,0,0.00,,,0.00,Weather View 32 v70,2013-02-26 04:33:00,
2013-02-25 23:38:00,33.8,0.0,30.12,NW,315,0.0,8.0,0,0.00,,,0.00,Weather View 32 v70,2013-02-26 04:38:00,
2013-02-25 23:44:00,33.4,0.0,30.12,NW,315,0.0,8.0,0,0.00,,,0.00,Weather View 32 v70,2013-02-26 04:44:00,
2013-02-25 23:49:00,33.6,0.0,30.14,NW,315,0.0,8.0,0,0.00,,,0.00,Weather View 32 v70,2013-02-26 04:49:00,
2013-02-25 23:54:00,33.8,0.0,30.12,NNW,338,2.0,8.0,0,0.00,,,0.00,Weather View 32 v70,2013-02-26 04:54:00,
2013-02-25 23:59:00,33.6,0.0,30.11,NNW,338,1.0,8.0,0,0.00,,,0.00,Weather View 32 v70,2013-02-26 04:59:00,